Location: Falconara Alta
(43.6167°N, 13.4000°E)
Time: 15:54:44
(UTC+00:00)

Cosmos 1697 Rocket - Pass Details

Date: 09 April 2020
Orbit: 831 x 845 km, 71.0° (Epoch: 04 June)

Event Time Altitude Azimuth Distance (km) Brightness Sun altitude
Rises 21:07:15 0° 332° (NNW) 3,411 7.0 -31.6°
Reaches altitude 10° 21:09:43 10° 330° (NNW) 2,473 6.0 -31.9°
Enters shadow 21:14:11 53° 305° (NW) 1,027 3.3 -32.3°
